DIAMANT B-P4 R/B, 7647

Orbit data source: Space-Track

DIAMANT B-P4 R/B, 7647 is space debris in LEO originally from a launch on Thu, 06 Feb 1975 UTC launched from the French Guiana (FRGUI). Debris objects in space refer to the collection of defunct objects orbiting the Earth. Examples of debris include non-operational satellites, rocket bodies, and fragments generated from explosions, collisions, or faulty payload assembly.

Loading next visibility...
Identifier
7647, 1975-010B
Orbit
LEO
Country
Flag of FRFR
Related business
Manufacturer
Ae/Cannes
Mission
Spacecraft
Bus & Motor
RUBIS, Unknown motor
Mass
~95 kg wet, ~95 kg dry
Launch date (UTC)
1975-02-06 (51 years ago)
Launch vehicle
Unknown
Launch site
French Guiana (FRGUI)
Object type
Payload
Rocket body
Debris
Shape & HBR
Unknown
Radar Cross Section
Medium (>0.1 m² and <1 m²)

Expand to show TLE details & history
Last TLE update: 15 hours ago

TLE from 15 hours ago
0 DIAMANT B-P4 R/B
1  7647U 75010B   25312.79606132  .00000029  00000-0  13029-3 0  9993
2  7647  49.8249  97.8290 0217319 238.7885 119.1547 13.82295301560554
Epoch: 2025-11-08T19:06Z
TLE epoch observation values (Epoch: 2025-11-08T19:06:19.698Z)
Latitude
0.00002°
Longitude
123.02641°
Altitude
1,036.497 km
Speed
7.295 km/s
True Right ascension
06h 31m 18s
True Declination
0° 00' 00"
Sunlit
Object was in full shadow at epoch
Visualization orbit readout
Latitude
Unknown
Longitude
Unknown
Altitude
Unknown
Speed
Unknown
Apparent Right ascension
Unknown
Apparent Declination
Unknown
Sunlit
N/A
Visualization observer readout
Local Sidereal Time
05:51:22
Azimuth
Unknown
Elevation
Unknown
Doppler factor
Unknown
Orbital elements
Apogee altitude
1,115.904 km
Perigee altitude
797.112 km
Semi-major axis
7,334.645 km
Eccentricity
0.02173
Inclination
49.8249°
RAAN
97.829°
Arg. of periapsis
238.7885°
True anomaly
121.30057°
Mean anomaly
119.1547°
Eccentric anomaly
120.23051°
Mean motion
3.45521 °/min
Orbital period
104.19 mins
BSTAR
0.00013029
Loading maneuver chart data...
Computing Atmospheric mass density...
Loading historical data...
Loading historical data...
Loading historical data...
Loading historical data...
Loading historical data...
Loading historical data...
Loading historical data...
Other satellites on launch #10 in the year 1975 (1975-02-06 UTC)

Documentation

Showing up to 5 results
|